Regional Weather Roundup
Issued by NWS

Home | Current Version | Previous Version | Graphics & Text | Print | Product List | Glossary On
Versions: 1 2 3 4 5 6 7 8 9 10 11 12 13 14 15 16 17 18 19 20 21 22 23 24 25 26 27 28 29 30 31 32 33 34 35 36 37 38 39 40 41
000
ASUS43 KDMX 251707
RWRIA

WEATHER ROUNDUP FOR IOWA
NATIONAL WEATHER SERVICE DES MOINES IA
1100 AM CST THU DEC 25 2014

NOTE: "FAIR" INDICATES FEW OR NO CLOUDS BELOW 12,000 FEET WITH NO
SIGNIFICANT WEATHER AND/OR OBSTRUCTIONS TO VISIBILITY.

* - THESE STATIONS ARE NOT NWS STATIONS...THUS NOT UNDER NWS
QUALITY CONTROL.  THEY ALSO DO NOT REPORT WEATHER SUCH
AS PRECIPITATION OR FOG.

IAZ001>003-012>014-020>022-031>034-043>046-251800-
   NORTHWEST IOWA

CITY           SKY/WX    TMP DP  RH WIND       PRES   REMARKS
CARROLL *      SUNNY     36  30  80 S16       29.71S WCI  26
CHEROKEE *     PTSUNNY   32  30  93 S7        29.68F WCI  26
DENISON *      SUNNY     36  30  80 S10G20    29.68F WCI  28
LE MARS *      SUNNY     36  30  80 S9        29.68R WCI  29
ORANGE CITY *  MOSUNNY   36  28  75 S7        29.66S WCI  30
SHELDON *      SUNNY     32  30  93 SE8       29.66S WCI  25
SIOUX CITY     PTSUNNY   37  31  78 SE7       29.66R WCI  32
SPENCER        MOSUNNY   36  29  75 S8        29.70R WCI  30
STORM LAKE *   SUNNY     32  28  86 S13       29.68F WCI  22
$$

IAZ055>058-069>071-079>083-090>094-251800-
   SOUTHWEST IOWA

CITY           SKY/WX    TMP DP  RH WIND       PRES   REMARKS
ATLANTIC *     SUNNY     39  30  70 S16       29.71F WCI  30
AUDUBON *      SUNNY     36  27  69 S14       29.72S WCI  27
CLARINDA *     SUNNY     41  32  70 S16       29.75F
COUNCIL BLFS * SUNNY     37  32  81 SE15      29.67F WCI  28
CRESTON *      SUNNY     37  32  81 S17       29.75S WCI  28
HARLAN  *      SUNNY     37  34  87 S17G25    29.72F WCI  28
LAMONI         PTSUNNY   40  30  67 S14       29.78S WCI  32
RED OAK *      SUNNY     41  32  70 S13       29.72S
SHENANDOAH *   SUNNY     41  32  70 S14G20    29.72F
$$

IAZ047>049-059>061-072>074-084-251800-
   CENTRAL IOWA

CITY           SKY/WX    TMP DP  RH WIND       PRES   REMARKS
AMES           PTSUNNY   38  29  70 S10       29.76S WCI  31
ANKENY *       SUNNY     41  30  65 S14       29.76F
CHARITON *     SUNNY     39  30  70 S17G26    29.79F WCI  30
DES MOINES     PTSUNNY   41  30  65 S14       29.77S
GRINNELL*      MOSUNNY   39  32  75 S16       29.81S WCI  30
KNOXVILLE *    SUNNY     39  30  70 S14       29.79S WCI  31
MARSHALLTOWN   MOSUNNY   35  29  78 S13       29.78R WCI  26
PELLA *        MOSUNNY   41  32  70 S12       29.82S
PERRY *          N/A     39  34  81 S12       29.74F WCI  32
$$

IAZ004>006-015-016-023>025-035-036-251800-
   NORTH CENTRAL IOWA

CITY           SKY/WX    TMP DP  RH WIND       PRES   REMARKS
ALGONA *       SUNNY     34  32  93 S16       29.72S WCI  23
CLARION *      SUNNY     34  32  93 S12       29.75S WCI  25
ESTHERVILLE    PTSUNNY   32  28  85 S8        29.70R WCI  25
FORT DODGE *   PTSUNNY   36  28  75 S12       29.74R WCI  27
MASON CITY     PTSUNNY   33  29  85 S14       29.76R WCI  23
FOREST CITY *  MOSUNNY   34  32  93 S10       29.74R WCI  26
IOWA FALLS *     N/A     36  30  80 S14       29.76F WCI  27
$$

IAZ007>011-017>019-026>030-037>042-050>054-066-251800-
   NORTHEAST IOWA

CITY           SKY/WX    TMP DP  RH WIND       PRES   REMARKS
CEDAR RAPIDS   PTSUNNY   38  31  76 S12G21    29.84S WCI  30
CHARLES CITY * SUNNY     34  32  93 S14       29.79R WCI  24
CLINTON *      MOSUNNY   39  30  70 SW15      29.94R WCI  31
DECORAH *        N/A     34  30  86 S10G17    29.79S WCI  26
DUBUQUE        PTSUNNY   36  30  79 S20       29.86R WCI  25
MONTICELLO *   SUNNY     37  34  87 S14       29.86F WCI  29
OELWEIN *      SUNNY     36  32  87 S18       29.81S WCI  25
WATERLOO       PTSUNNY   39  30  70 S15       29.80R WCI  31
$$

IAZ064-065-067-068-078-251800-
   EAST CENTRAL IOWA

CITY           SKY/WX    TMP DP  RH WIND       PRES   REMARKS
DAVENPORT      MOSUNNY   38  30  73 S17       29.91R WCI  28
IOWA CITY      PTSUNNY   38  31  76 S10       29.89S WCI  31
MT. PLEASANT * PTSUNNY   39  32  75 S17       29.90S WCI  30
MUSCATINE *    SUNNY     41  32  70 S16       29.90F
QUAD CITIES    MOSUNNY   40  31  70 S8G21     29.91R WCI  34
$$

IAZ062-063-075>077-085>089-095>099-251800-
   SOUTHEAST IOWA

CITY           SKY/WX    TMP DP  RH WIND       PRES   REMARKS
BURLINGTON     PTSUNNY   40  33  76 S17       29.90F WCI  31
FAIRFIELD *    SUNNY     41  30  65 S15       29.86F
FORT MADISON * SUNNY     43  36  75 S12G17    29.91F
KEOKUK *       SUNNY     41  34  75 S14       29.90F
OSKALOOSA *      N/A     39  32  75 S15       29.84F WCI  31
CENTERVILLE *  SUNNY     41  32  70 S16G23    29.84S
OTTUMWA        PTSUNNY   39  31  72 S13       29.83S WCI  31
WASHINGTON *   SUNNY     39  36  87 S13       29.87F WCI  32
$$

ABBREVIATIONS USED IN REMARKS
   TC - TEMPERATURES IN CELSIUS
  WCI - WIND CHILL INDEX
   HX - HEAT INDEX
  VSB - VISIBILITY
$$




USA.gov is the U.S. government's official web portal to all federal, state and local government web resources and services.